Regional Weather Roundup
Issued by NWS

Home | Current Version | Previous Version | Text Only | Print | Product List | Glossary On
Versions: 1 2 3 4 5 6 7 8 9 10 11 12 13 14 15 16 17 18 19 20 21 22 23 24 25 26 27 28 29 30 31 32 33 34 35 36 37 38 39 40 41 42 43 44 45 46 47 48 49 50
000
ASUS44 KMEG 191110
RWRTN
TENNESSEE HOURLY STATE WEATHER ROUNDUP
NATIONAL WEATHER SERVICE MEMPHIS TN
600 AM CDT SAT AUG 19 2017

TNZ002-004-019-021-049-052-054-088>092-191200-
WEST TENNESSEE

CITY           SKY/WX    TMP DP  RH WIND       PRES   REMARKS
MEMPHIS INTL   PTCLDY    74  71  91 SW3       29.95S
NWS MEMPHIS      N/A     71 N/A N/A MISG        N/A
JACKSON        CLEAR     66  66 100 CALM      29.97R
DYERSBURG      CLEAR     68  67  96 CALM      29.97R
SOMERVILLE     CLEAR     70  70 100 CALM      29.95S
COVINGTON      CLEAR     70  68  94 CALM      29.95S
UNION CITY     CLEAR     66  66 100 SE5       29.94S
BOLIVAR        PTCLDY    68  66  94 SE5       29.96S
PARIS          PTCLDY    66  66 100 CALM      29.96S
HUNTINGDON     PTCLDY    66  66 100 CALM      29.96S
LEXINGTON      CLEAR     66  64  94 CALM      29.98R FOG
SELMER         CLEAR     68  64  88 SW5       29.97S
SAVANNAH       PTCLDY    68  66  94 S3        29.97R
$$

TNZ008-025-027-028-033-062-065-066-191200-
NORTH MIDDLE TENNESSEE

CITY           SKY/WX    TMP DP  RH WIND       PRES   REMARKS
NASHVILLE      PTCLDY    68  66  93 S3        29.99R
PORTLAND       CLEAR     68  66  94 S6        29.98R
CLARKSVILLE    MOCLDY    67  65  93 CALM      29.97R
SMYRNA         PTCLDY    66  65  96 SE3       30.00R
COOKEVILLE     CLEAR     63  63 100 CALM      30.01R FOG
GALLATIN       CLEAR     68  66  94 CALM      30.01S
CROSSVILLE     CLEAR     61  59  93 CALM      30.06R
$$

TNZ061-075-076-078-094-096-097-191200-
SOUTH MIDDLE TENNESSEE

CITY           SKY/WX    TMP DP  RH WIND       PRES   REMARKS
FAYETTEVILLE   CLEAR     66  66 100 CALM      30.00S
TULLAHOMA      MOCLDY    64  64 100 CALM      30.02S
WINCHESTER     CLEAR     64  64 100 CALM      30.02S
MCMINNVILLE    MOCLDY    64  64 100 CALM      30.02R VSB 3/4
COLUMBIA       PTCLDY    64  64 100 CALM      29.98R
SHELBYVILLE    CLEAR     64  64 100 CALM      30.00R
$$

TNZ017-018-042-046-047-191200-
NORTHEAST TENNESSEE

CITY           SKY/WX    TMP DP  RH WIND       PRES   REMARKS
TRI CITIES     FOG       65  65 100 CALM      30.04S VSB 1/8
ELIZABETHTON   CLEAR     63  63 100 CALM      30.06R FOG
$$

TNZ012-013-036-069-073-074-191200-
CENTRAL EAST TENNESSEE

CITY           SKY/WX    TMP DP  RH WIND       PRES   REMARKS
KNOXVILLE      PTCLDY    66  64  93 CALM      30.01S
OAK RIDGE      CLOUDY    65  63  93 CALM      30.03R FOG
DOWNTOWN KNOXV PTCLDY    66  66 100 CALM      30.01S FOG
GATLINBURG     CLEAR     63  63 100 CALM      30.02S
MORRISTOWN     CLEAR     64  64 100 CALM      30.02S
JACKSBORO      PTCLDY    63  63 100 CALM      30.06R FOG
$$

TNZ083-085-099-191200-
SOUTHEAST TENNESSEE

CITY           SKY/WX    TMP DP  RH WIND       PRES   REMARKS
CHATTANOOGA    PTCLDY    68  66  93 CALM      30.01S
DAYTON         FOG       64  64 100 CALM      30.00S VSB 0
$$

SKY/WX REPORTED AS FAIR MEANS FEW OR NO CLOUDS BELOW
12 THOUSAND FEET.




USA.gov is the U.S. government's official web portal to all federal, state and local government web resources and services.